Weather History for Siemreap, Cambodia

Change the Weather History Date:

Thursday, October 18, 2012

  Actual Average Record
Temperature  
Mean Temperature 83 °F -  
Max Temperature 89 °F - - ()
Min Temperature 77 °F - - ()
Cooling Degree Days 18    
Growing Degree Days 33 (Base 50)    
Moisture  
Dew Point 72 °F    
Average Humidity 67    
Maximum Humidity 89    
Minimum Humidity 49    
Precipitation  
Precipitation 0.00 in - - ()
Sea Level Pressure  
Sea Level Pressure 29.85 in    
Wind  
Wind Speed 5 mph ()    
Max Wind Speed 9 mph    
Max Gust Speed -    
Visibility 6.0 miles    
Events      
T = Trace of Precipitation, MM = Missing Value Source: Averaged Metar Reports

Daily Weather History Graph

Daily Weather History Graph

Search for Another Location

Airport:

Trip Planner

Search our weather history database for the weather conditions in past years. The results will help you decide how hot, cold, wet, or windy it might be!

Date:

Astronomy

Oct. 18, 2012 Rise Set
Actual Time 5:55 AM ICT 5:43 PM ICT
Civil Twilight 5:34 AM ICT 6:05 PM ICT
Nautical Twilight 5:09 AM ICT 6:30 PM ICT
Astronomical Twilight 4:44 AM ICT 6:54 PM ICT
Moon 8:30 AM ICT (10/18) 8:18 PM ICT (10/18)
Length of Visible Light 12h 31m
Length of Day
11h 48m
Waxing Crescent, 10% of the Moon is Illuminated
Oct 18
Waxing Crescent
Oct 22
First Quarter
Oct 30
Full
Nov 7
Last Quarter
Nov 14
New

Hourly Weather History & Observations

Time (ICT) Temp. Heat Index Dew Point Humidity Pressure Visibility Wind Dir Wind Speed Gust Speed Precip Events Conditions
7:00 AM 77.0 °F - 69.8 °F 78% 29.86 in 5.6 mi ESE 6.9 mph - N/A   Scattered Clouds
7:30 AM 78.8 °F - 69.8 °F 74% 29.89 in 5.6 mi ESE 9.2 mph - N/A   Scattered Clouds
8:00 AM 78.8 °F - 69.8 °F 74% 29.89 in 5.6 mi ESE 9.2 mph - N/A   Scattered Clouds
8:30 AM 82.4 °F 87.2 °F 71.6 °F 70% 29.89 in 6.2 mi ESE 6.9 mph - N/A   Scattered Clouds
9:00 AM 82.4 °F 86.3 °F 69.8 °F 66% 29.92 in 6.2 mi ESE 5.8 mph - N/A   Scattered Clouds
9:30 AM 84.2 °F 88.4 °F 69.8 °F 62% 29.92 in 6.2 mi East 5.8 mph - N/A   Scattered Clouds
10:00 AM 84.2 °F 88.4 °F 69.8 °F 62% 29.92 in 6.2 mi East 9.2 mph - N/A   Scattered Clouds
10:30 AM 86.0 °F 90.4 °F 69.8 °F 58% 29.92 in 6.2 mi ESE 9.2 mph - N/A   Scattered Clouds
11:00 AM 86.0 °F 89.4 °F 68.0 °F 55% 29.89 in 6.2 mi ESE 9.2 mph - N/A   Scattered Clouds
11:30 AM 86.0 °F 89.4 °F 68.0 °F 55% 29.89 in 6.2 mi East 8.1 mph - N/A   Scattered Clouds
12:00 PM 87.8 °F 92.6 °F 69.8 °F 55% 29.89 in 6.2 mi ESE 6.9 mph - N/A   Scattered Clouds
12:30 PM 87.8 °F 93.8 °F 71.6 °F 58% 29.86 in 6.2 mi ESE 6.9 mph - N/A   Scattered Clouds
1:00 PM 89.6 °F 93.4 °F 68.0 °F 49% 29.83 in 6.2 mi ESE 6.9 mph - N/A   Scattered Clouds
1:30 PM 87.8 °F 91.4 °F 68.0 °F 52% 29.83 in 6.2 mi East 9.2 mph - N/A   Scattered Clouds
2:00 PM 89.6 °F 94.7 °F 69.8 °F 52% 29.83 in 6.2 mi SE 5.8 mph - N/A   Scattered Clouds
2:30 PM 89.6 °F 93.4 °F 68.0 °F 49% 29.80 in 6.2 mi ESE 5.8 mph - N/A   Scattered Clouds
3:00 PM 89.6 °F 93.4 °F 68.0 °F 49% 29.80 in 6.2 mi ESE 5.8 mph - N/A   Scattered Clouds
3:30 PM 89.6 °F 93.4 °F 68.0 °F 49% 29.80 in 6.2 mi Variable 3.5 mph - N/A   Scattered Clouds
4:00 PM 87.8 °F 95.6 °F 73.4 °F 62% 29.80 in 6.2 mi WSW 8.1 mph - N/A   Scattered Clouds
4:30 PM 87.8 °F 93.8 °F 71.6 °F 58% 29.80 in 6.2 mi SSW 4.6 mph - N/A   Scattered Clouds
5:00 PM 86.0 °F 93.4 °F 73.4 °F 66% 29.80 in 6.2 mi WSW 4.6 mph - N/A   Scattered Clouds
5:30 PM 84.2 °F 90.9 °F 73.4 °F 70% 29.80 in 6.2 mi WSW 4.6 mph - N/A   Scattered Clouds
6:00 PM 82.4 °F 88.2 °F 73.4 °F 74% 29.80 in 5.6 mi Variable 3.5 mph - N/A   Scattered Clouds
6:30 PM 82.4 °F 89.5 °F 75.2 °F 79% 29.83 in 5.6 mi SW 3.5 mph - N/A   Scattered Clouds
7:00 PM 82.4 °F 88.2 °F 73.4 °F 74% 29.83 in 5.6 mi Calm Calm - N/A   Scattered Clouds
7:30 PM 82.4 °F 88.2 °F 73.4 °F 74% 29.83 in 5.6 mi Calm Calm - N/A   Scattered Clouds
8:30 PM 82.4 °F 89.5 °F 75.2 °F 79% 29.86 in 5.6 mi Calm Calm - N/A   Scattered Clouds
9:00 PM 82.4 °F 89.5 °F 75.2 °F 79% 29.86 in 5.6 mi Calm Calm - N/A   Scattered Clouds
9:30 PM 82.4 °F 92.4 °F 78.8 °F 89% 29.86 in 5.6 mi Calm Calm - N/A   Partly Cloudy
10:00 PM 80.6 °F 87.1 °F 77.0 °F 89% 29.86 in 5.6 mi Calm Calm - N/A   Partly Cloudy
10:30 PM 80.6 °F 87.1 °F 77.0 °F 89% 29.86 in 5.6 mi Variable 1.2 mph - N/A   Partly Cloudy
11:00 PM 80.6 °F 87.1 °F 77.0 °F 89% 29.86 in 5.6 mi North 1.2 mph - N/A   Partly Cloudy